Torna al catalogo

THOR ABLESTAR DEB

AttivoLEO
NORAD 177·DEBRIS·🇺🇸 United States

Lanciato Jun 29, 1961 da Cape Canaveral Space Force Station

Loading…

Prossimi Passaggi (prossime 24 ore)

TLE

AggiornatoSource: Space-Track

Epoca: Sep 14, 2026, 14:41 UTC

1 00177U 61015BB  26257.61184457  .00000340  00000-0  20766-3 0  9997
2 00177  66.6553 334.3499 0103978  25.4094 335.2056 14.14892938353818

Traccia THOR ABLESTAR DEB in tempo reale con AllMySat

Download on the App Store